Regional Weather Roundup
Issued by NWS

Home | Current Version | Previous Version | Text Only | Print | Product List | Glossary Off
Versions: 1 2 3 4 5 6 7 8 9 10 11 12 13 14 15 16 17 18 19 20 21 22 23 24 25 26 27 28 29 30 31 32 33 34 35 36 37 38 39 40 41 42 43 44 45 46 47 48 49 50

000
ASUS43 KMPX 180701
RWRMN
WEATHER ROUNDUP FOR MINNESOTA
NATIONAL WEATHER SERVICE TWIN CITIES/CHANHASSEN MN
200 AM CDT THU SEP 18 2014


NOTE: "FAIR" INDICATES FEW OR NO CLOUDS BELOW 12,000 FEET WITH NO
SIGNIFICANT WEATHER AND/OR OBSTRUCTIONS TO VISIBILITY. N/A MEANS
CURRENT SKY AND/OR WEATHER CONDITIONS ARE NOT AVAILABLE.

MNZ060>063-068>070-180800-
   Twin Cities Metro

CITY           SKY/WX    TMP DP  RH WIND       PRES   REMARKS
TWIN CITIES    CLEAR     54  50  86 N7        30.06R
ST PAUL        CLEAR     53  49  86 NE5       30.07R
CRYSTAL        PTCLDY    52  48  86 NE7       30.06R
BLAINE         CLEAR     52  52 100 NE6       30.07R
LAKEVILLE      CLEAR     52  52 100 NE3       30.05R
EDEN PRAIRIE     N/A    N/A N/A N/A MISG      30.04R
SOUTH ST PAUL  CLEAR     54  50  87 NE5       30.06R
LAKE ELMO      FAIR      50  48  93 NE5       30.07S
$$
MNZ001>005-007-008-013>017-022>024-027-028-180800-
   Northwest Minnesota

CITY           SKY/WX    TMP DP  RH WIND       PRES   REMARKS
BEMIDJI        CLOUDY    48  46  93 SE13      30.06S
HALLOCK        CLEAR     41  37  87 E5        30.06F
ROSEAU         CLEAR     37  34  87 E6        30.09S
WARROAD        CLEAR     43  39  87 E8        30.10S
THIEF RVR FALL CLEAR     43  39  87 E7        30.05S
CROOKSTON      CLEAR     46  43  87 E6        30.04S
FOSSTON        CLEAR     41  39  93 CALM      30.05S
DETROIT LAKES  CLEAR     52  50  93 SE5       30.04S
MOORHEAD       CLEAR     45  45 100 CALM      30.01S
PARK RAPIDS    CLOUDY    48  46  93 E7        30.06R
MAHNOMEN       FAIR      47  45  91 E5        30.02F
$$
MNZ006-009>011-018-025>026-180800-
   North Central Minnesota

CITY           SKY/WX    TMP DP  RH WIND       PRES   REMARKS
BAUDETTE       CLEAR     35  33  92 E6        30.10S WCI  30
FLAG ISLAND    CLEAR     46  39  76 SE7       30.08F
INTL FALLS     CLOUDY    39  37  92 SE5       30.12R
WASKISH        CLOUDY    37  37 100 CALM      30.09R
BIG FORK       CLOUDY    45  43  93 SE6       30.11S
LONGVILLE      CLOUDY    45  43  93 SE7       30.09S
GRAND RAPIDS   CLOUDY    43  37  81 SE10      30.12R
CRANE LAKE     CLOUDY    37  37 100 CALM      30.15S
ORR            CLOUDY    43  37  81 S3        30.11R
COOK           CLOUDY    41  39  93 SE6       30.14R
WALKER         CLOUDY    47  45  94 E6        30.08R
$$
MNZ012-019>021-037-180800-
   Northeast Minnesota

CITY           SKY/WX    TMP DP  RH WIND       PRES   REMARKS
DULUTH         CLOUDY    44  38  79 E14       30.13R
ELY            CLOUDY    36  34  93 CALM      30.14S
HIBBING        CLOUDY    43  39  86 SE12      30.13R
EVELETH        CLOUDY    43  39  87 SE3       30.14S
DULUTH HARBOR  CLOUDY    48  43  81 E12       30.16R
TWO HARBORS    CLOUDY    43  36  75 E10       30.14R
SILVER BAY     PTCLDY    43  39  87 E5        30.14S
GRAND MARAIS     N/A     44  37  76 VRB3      30.17S
G MARAIS ARPRT CLOUDY    37  30  75 CALM      30.15S
$$
MNZ029>031-032-039>041-046>048-054>057-064-180800-
   West Central Minnesota

CITY           SKY/WX    TMP DP  RH WIND       PRES   REMARKS
FERGUS FALLS   CLEAR     55  48  76 E5        30.02S
WHEATON        CLEAR     45  43  93 CALM      30.02S
MORRIS         CLEAR     52  50  93 SE7       30.00S
ALEXANDRIA     CLEAR     52  50  93 E12       30.05R
ELBOW LAKE     FAIR      55  51  86 E8        30.01S
WADENA         CLOUDY    48  46  93 E8        30.06R
GLENWOOD       CLEAR     52  50  93 E8        30.04S
APPLETON       CLEAR     54  52  94 SE5       29.99F
BENSON         CLEAR     54  52  94 CALM      30.01S
ORTONVILLE     CLEAR     55  52  88 SE5       29.99S FOG
MADISON        CLEAR     52  50  93 CALM      30.00S
WILLMAR        FAIR      57  54  88 E8        30.03S
$$
MNZ033>034-036-042>043-049>051-058-059-180800-
   Central Minnesota

CITY           SKY/WX    TMP DP  RH WIND       PRES   REMARKS
ST CLOUD       CLOUDY    50  46  86 E9        30.08R
SAUK CENTRE    CLOUDY    48  47  97 E10G16    30.06R FOG
PAYNESVILLE    MOCLDY    48  48  98 NE8       30.06R
AITKIN         CLOUDY    46  41  81 E6        30.10R
PINE RIVER     CLOUDY    45  43  93 E9        30.12R
BRAINERD       CLOUDY    45  43  93 E6        30.09S
STAPLES        CLOUDY    46  45  93 E5        30.07R
LONG PRAIRIE   CLOUDY    46  46 100 NE7       30.07R FOG
LITTLE FALLS   CLOUDY    46  45  93 CALM      30.08S
LITCHFIELD     CLEAR     54  54 100 E8        30.05S
BUFFALO        CLOUDY    51  48  90 NE9       30.07S
MAPLE LAKE     CLOUDY    51  50  97 E8        30.07S
$$
MNZ037-044-045-052-053-180800-
   East Central Minnesota

CITY           SKY/WX    TMP DP  RH WIND       PRES   REMARKS
PRINCETON      CLOUDY    48  46  93 NE6       30.09S
MORA           CLOUDY    45  43  93 CALM      30.12R
CAMBRIDGE      CLEAR     48  41  76 NE8       30.08R
RUSH CITY      PTCLDY    45  42  91 NE5       30.10R
MOOSE LAKE     MOCLDY    43  37  81 E5        30.11S
HINCKLEY       FAIR      43  41  93 NE5       30.11S
CLOQUET        CLOUDY    43  37  81 E8        30.13R
MCGREGOR       CLEAR     41  37  87 E7        30.13R
$$
MNZ071>073-080-081-089-090-097-098-180800-
   Southwest Minnesota

CITY           SKY/WX    TMP DP  RH WIND       PRES   REMARKS
MONTEVIDEO     CLEAR     54  54 100 S5        30.01S
GRANITE FALLS  CLEAR     54  52  91 E3        30.02S
CANBY          CLEAR     50  49  96 CALM      30.01S
MARSHALL       CLEAR     52  46  82 CALM      30.00S
REDWOOD FALLS  CLEAR     56  53  90 E5        30.01S
OLIVIA         CLEAR     55  52  88 SE5       30.01S
PIPESTONE      CLEAR     57  52  82 E6        30.00F
WINDOM         CLEAR     55  52  88 E3        30.01S
WORTHINGTON    CLEAR     52  50  93 S3        30.02S
JACKSON        CLEAR     55  52  88 S5        30.02S
TRACY          CLEAR     58  53  81 CALM      30.01S
SLAYTON        CLEAR     54  51  90 CALM      30.01F
$$
MNZ065>067-074>077-082>085-091>093-180800-
   South Central Minnesota

CITY           SKY/WX    TMP DP  RH WIND       PRES   REMARKS
MANKATO        CLEAR     55  48  76 SE7       30.02S
NEW ULM        CLEAR     57  55  94 CALM      30.02S
ST JAMES       PTCLDY    54  52  94 E5        30.03R
FAIRMONT       MOCLDY    54  46  76 CALM      30.02S
GLENCOE        CLEAR     55  52  88 NE3       30.03R
FARIBAULT      HAZE      50  45  81 CALM      30.04R VSB 1/4
OWATONNA       CLEAR     46  45  93 CALM      30.04R
WASECA         CLEAR     50  46  87 CALM      30.05R
ALBERT LEA     CLEAR     52  50  93 CALM      30.04R
$$
MNZ078>079-086>088-094>096-180800-
   Southeast Minnesota

CITY           SKY/WX    TMP DP  RH WIND       PRES   REMARKS
ROCHESTER      CLEAR     50  48  93 S7        30.05R
RED WING       CLEAR     54  52  94 E6        30.04S
STANTON        PTCLDY    50  48  93 E3        30.03R FOG
DODGE CENTER   CLEAR     52  50  93 CALM      30.04S
WINONA         MOCLDY    54  54 100 CALM      30.05R
AUSTIN         CLEAR     48  46  93 CALM      30.04R
PRESTON        CLEAR     53  52  97 S5        30.05S
$$
ABBREVIATIONS USED IN REMARKS
   TC - TEMPERATURES IN CELSIUS
  WCI - WIND CHILL INDEX
   HX - HEAT INDEX
  VSB - VISIBILITY
$$



USA.gov is the U.S. government's official web portal to all federal, state and local government web resources and services.